TimeMDT,TemperatureF,Dew PointF,Humidity,Sea Level PressureIn,VisibilityMPH,Wind Direction,Wind SpeedMPH,Gust SpeedMPH,PrecipitationIn,Events,Conditions,WindDirDegrees,DateUTC
12:15 AM,68.0,57.2,68,30.12,10.0,Calm,Calm,-,N/A,,Clear,0,2013-08-24 06:15:00
12:35 AM,69.8,57.2,64,30.13,10.0,Calm,Calm,-,N/A,,Clear,0,2013-08-24 06:35:00
12:55 AM,69.8,59.0,68,30.13,10.0,Calm,Calm,-,N/A,,Clear,0,2013-08-24 06:55:00
1:15 AM,68.0,57.2,68,30.13,10.0,Calm,Calm,-,N/A,,Clear,0,2013-08-24 07:15:00
1:35 AM,68.0,57.2,68,30.14,10.0,Calm,Calm,-,N/A,,Clear,0,2013-08-24 07:35:00
1:55 AM,66.2,57.2,73,30.14,10.0,Calm,Calm,-,N/A,,Clear,0,2013-08-24 07:55:00
2:15 AM,66.2,59.0,78,30.14,10.0,Calm,Calm,-,N/A,,Clear,0,2013-08-24 08:15:00
2:35 AM,66.2,59.0,78,30.14,10.0,Calm,Calm,-,N/A,,Clear,0,2013-08-24 08:35:00
2:55 AM,66.2,59.0,78,30.14,10.0,Calm,Calm,-,N/A,,Clear,0,2013-08-24 08:55:00
3:15 AM,66.2,59.0,78,30.15,10.0,Calm,Calm,-,N/A,,Clear,0,2013-08-24 09:15:00
3:35 AM,68.0,59.0,73,30.14,10.0,Calm,Calm,-,N/A,,Clear,0,2013-08-24 09:35:00
3:55 AM,68.0,62.6,83,30.14,10.0,Calm,Calm,-,N/A,,Clear,0,2013-08-24 09:55:00
4:15 AM,68.0,62.6,83,30.15,10.0,Calm,Calm,-,N/A,,Clear,0,2013-08-24 10:15:00
4:35 AM,68.0,62.6,83,30.14,10.0,Calm,Calm,-,N/A,,Clear,0,2013-08-24 10:35:00
4:55 AM,68.0,62.6,83,30.15,10.0,Calm,Calm,-,N/A,,Clear,0,2013-08-24 10:55:00
5:50 AM,66.2,62.6,88,30.15,10.0,Calm,Calm,-,N/A,,Partly Cloudy,0,2013-08-24 11:50:00
6:50 AM,66.2,62.6,88,30.16,10.0,Calm,Calm,-,N/A,,Partly Cloudy,0,2013-08-24 12:50:00
7:50 AM,73.4,60.8,65,30.18,10.0,SE,3.5,-,N/A,,Partly Cloudy,130,2013-08-24 13:50:00
8:50 AM,77.0,60.8,57,30.19,10.0,SE,12.7,-,N/A,,Clear,140,2013-08-24 14:50:00
9:50 AM,80.6,59.0,48,30.19,10.0,SE,12.7,-,N/A,,Clear,130,2013-08-24 15:50:00
10:50 AM,84.2,57.2,40,30.20,10.0,SE,15.0,20.7,N/A,,Partly Cloudy,130,2013-08-24 16:50:00
11:50 AM,86.0,55.4,35,30.18,10.0,SE,12.7,21.9,N/A,,Scattered Clouds,140,2013-08-24 17:50:00
12:50 PM,86.0,55.4,35,30.16,10.0,SE,11.5,19.6,N/A,,Mostly Cloudy,140,2013-08-24 18:50:00
1:50 PM,86.0,55.4,35,30.14,10.0,ESE,11.5,-,N/A,,Mostly Cloudy,120,2013-08-24 19:50:00
2:50 PM,84.2,55.4,37,30.13,10.0,East,11.5,18.4,N/A,,Mostly Cloudy,100,2013-08-24 20:50:00
3:50 PM,86.0,53.6,33,30.11,10.0,ESE,12.7,20.7,N/A,,Mostly Cloudy,110,2013-08-24 21:50:00
4:50 PM,86.0,55.4,35,30.11,10.0,East,13.8,20.7,N/A,,Mostly Cloudy,90,2013-08-24 22:50:00
5:22 PM,71.6,64.4,78,30.12,5.0,South,17.3,-,N/A,Rain-Thunderstorm,Light Thunderstorms and Rain,170,2013-08-24 23:22:00
5:50 PM,71.6,64.4,78,30.13,10.0,South,11.5,-,N/A,Rain,Light Rain,180,2013-08-24 23:50:00
6:15 PM,75.2,66.2,73,30.11,10.0,Calm,Calm,-,N/A,,Partly Cloudy,0,2013-08-25 00:15:00
6:35 PM,78.8,62.6,57,30.10,10.0,Calm,Calm,-,N/A,,Clear,0,2013-08-25 00:35:00
6:55 PM,78.8,62.6,57,30.11,10.0,Calm,Calm,-,N/A,,Clear,0,2013-08-25 00:55:00
7:15 PM,77.0,62.6,61,30.11,10.0,Calm,Calm,-,N/A,,Clear,0,2013-08-25 01:15:00
7:35 PM,75.2,62.6,65,30.12,10.0,Calm,Calm,-,N/A,,Clear,0,2013-08-25 01:35:00
7:55 PM,75.2,62.6,65,30.13,10.0,Calm,Calm,-,N/A,,Clear,0,2013-08-25 01:55:00
8:15 PM,75.2,62.6,65,30.13,10.0,Calm,Calm,-,N/A,,Clear,0,2013-08-25 02:15:00
8:35 PM,75.2,60.8,61,30.14,10.0,Calm,Calm,-,N/A,,Clear,0,2013-08-25 02:35:00
8:55 PM,75.2,59.0,57,30.15,10.0,Calm,Calm,-,N/A,,Clear,0,2013-08-25 02:55:00
9:15 PM,73.4,60.8,65,30.15,10.0,Calm,Calm,-,N/A,,Clear,0,2013-08-25 03:15:00
9:35 PM,73.4,57.2,57,30.16,10.0,Calm,Calm,-,N/A,,Clear,0,2013-08-25 03:35:00
9:55 PM,71.6,60.8,69,30.18,10.0,Calm,Calm,-,N/A,,Clear,0,2013-08-25 03:55:00
10:15 PM,71.6,59.0,64,30.18,10.0,Calm,Calm,-,N/A,,Clear,0,2013-08-25 04:15:00
10:35 PM,71.6,59.0,64,30.19,10.0,Calm,Calm,-,N/A,,Clear,0,2013-08-25 04:35:00
10:55 PM,71.6,59.0,64,30.19,10.0,Calm,Calm,-,N/A,,Clear,0,2013-08-25 04:55:00
11:15 PM,71.6,59.0,64,30.19,10.0,Calm,Calm,-,N/A,,Clear,0,2013-08-25 05:15:00
11:35 PM,71.6,59.0,64,30.19,10.0,Calm,Calm,-,N/A,,Clear,0,2013-08-25 05:35:00
11:55 PM,71.6,59.0,64,30.19,10.0,ESE,3.5,-,N/A,,Clear,120,2013-08-25 05:55:00